Showing default

QIANFAN-3, 60381

Orbit data source: Space-Track

QIANFAN-3, 60381 is a Chinese payload satellite in LEO that was launched on Tue, 06 Aug 2024 UTC via a CHANG ZHENG 6A launch vehicle from the Taiyaun Space Center, China (TSC). Payload-class satellites include a variety of spacecraft equipped with specific instruments for various scientific and technological missions. These include communications satellites like Starlink; space stations such as the ISS; scientific satellites like the Hubble; Earth observation satellites from companies like Planet Labs, Umbra, and HawkEye 360; GPS; miniature CubeSats for education and research; and military/defense satellites.

Loading next visibility...
Identifier
60381, 2024-140C
Orbit
LEO
Country
Flag of CNCN / PRC
Related business
Manufacturer
SECM
Mission
Operational Commercial Communications
Bus & Motor
QIANFAN, Unknown motor
Mass
267 kg wet, ~267 kg dry
Launch date (UTC)
2024-08-06 (2 years ago)
Launch vehicle
CHANG ZHENG 6A
Launch site
Taiyaun Space Center, China (TSC)
Object type
Payload
Rocket body
Debris
Shape & HBR
Box + 1 Pan, 5.0 m
Radar Cross Section
13.200 m², Large (>1 m²)

Expand to show TLE details & history
Last TLE update: 11 hours ago

TLE from 11 hours ago
0 QIANFAN-3
1 60381U 24140C   26171.40587530  .00000131  00000-0  18376-3 0  9991
2 60381  88.9716 279.5273 0013961  21.6300 338.5438 13.51012019 92925
Epoch: 2026-06-20T09:44Z
TLE epoch observation values (Epoch: 2026-06-20T09:44:27.625Z)
Latitude
-0.00005°
Longitude
-135.20877°
Altitude
1,061.815 km
Speed
7.326 km/s
True Right ascension
18h 38m 06s
True Declination
0° 00' 00"
Sunlit
Object was in full shadow at epoch
Visualization orbit readout
Latitude
Unknown
Longitude
Unknown
Altitude
Unknown
Speed
Unknown
Apparent Right ascension
Unknown
Apparent Declination
Unknown
Sunlit
N/A
Visualization observer readout
Local Sidereal Time
07:21:26
Azimuth
Unknown
Elevation
Unknown
Doppler factor
Unknown
Orbital elements
Apogee altitude
1,075.981 km
Perigee altitude
1,055.196 km
Semi-major axis
7,443.726 km
Eccentricity
0.0014
Inclination
88.9716°
RAAN
279.5273°
Arg. of periapsis
21.63°
True anomaly
338.48519°
Mean anomaly
338.5438°
Eccentric anomaly
338.5145°
Mean motion
3.37954 °/min
Orbital period
106.52 mins
BSTAR
0.00018376
Loading maneuver chart data...
Computing Atmospheric mass density...
Loading historical data...
Loading historical data...
Loading historical data...
Loading historical data...
Loading historical data...
Loading historical data...
Loading historical data...

Documentation

Showing up to 5 results
|